This is the latest recevied weather packets stored in our database for station/object KB2KMM. If no packets are shown the sender has not sent any weather packets the latest 1 day(s).
| Time | Temp. | Humidity | Pressure | Rain* | Wind** | Luminosity | Snow |
|---|---|---|---|---|---|---|---|
| 1778070606 | 14.44° C | 100% | 1011.2 hPa | 0 mm | - | - | - |
| 1778070006 | 14.44° C | 100% | 1011.4 hPa | 0 mm | - | - | - |
| 1778069406 | 14.44° C | 100% | 1011.6 hPa | 0 mm | - | - | - |
| 1778067306 | 13.89° C | 100% | 1011.2 hPa | 0 mm | - | - | - |
| 1778065205 | 13.33° C | 100% | 1011.3 hPa | 0 mm | - | - | - |
| 1778063705 | 12.78° C | 100% | 1011.1 hPa | 0 mm | - | - | - |
| 1778063105 | 12.78° C | 100% | 1011 hPa | 0 mm | - | - | - |
| 1778062505 | 12.78° C | 100% | 1011.1 hPa | 0 mm | - | - | - |
| 1778060705 | 12.78° C | 100% | 1011.1 hPa | 0 mm | - | - | - |
| 1778058606 | 12.78° C | 100% | 1011.2 hPa | 0 mm | - | - | - |
| 1778058305 | 12.78° C | 100% | 1011.2 hPa | 0 mm | - | - | - |
| 1778057705 | 12.78° C | 100% | 1011.3 hPa | 0 mm | - | - | - |
| 1778057105 | 12.78° C | 100% | 1011.3 hPa | 0 mm | - | - | - |
| 1778055606 | 13.33° C | 100% | 1011.4 hPa | 0 mm | - | - | - |
| 1778055306 | 13.33° C | 100% | 1011.4 hPa | 0 mm | - | - | - |
| 1778053806 | 13.33° C | 100% | 1011.5 hPa | 0 mm | - | - | - |
| 1778053206 | 13.33° C | 100% | 1011.6 hPa | 0 mm | - | - | - |
| 1778052905 | 13.33° C | 100% | 1011.6 hPa | 0 mm | - | - | - |
| 1778052607 | 13.33° C | 100% | 1011.8 hPa | 0 mm | - | - | - |
| 1778052006 | 13.33° C | 100% | 1011.8 hPa | 0 mm | - | - | - |
| 1778051705 | 13.33° C | 100% | 1011.8 hPa | 0 mm | - | - | - |
| 1778050805 | 13.33° C | 100% | 1011.8 hPa | 0 mm | - | - | - |
| 1778049305 | 13.33° C | 100% | 1011.6 hPa | 0 mm | - | - | - |
| 1778048705 | 13.33° C | 99% | 1011.7 hPa | 0 mm | - | - | - |
| 1778048105 | 13.89° C | 99% | 1011.6 hPa | 0 mm | - | - | - |
* Rain latest hour (hover to see other rain measurements)
** Current wind speed in m/s (hover to see current wind gust speed)